This is the latest recevied weather packets stored in our database for station/object N3LF. If no packets are shown the sender has not sent any weather packets the latest 10 day(s).
| Time | Temp. | Humidity | Pressure | Rain* | Wind** | Luminosity | Snow |
|---|---|---|---|---|---|---|---|
| 1787953246 | 31.67° C | 50% | 1019.6 hPa | 0 mm | - | 292 W/m² | - |
| 1787952942 | 32.22° C | 49% | 1019.5 hPa | 0 mm | - | 311 W/m² | - |
| 1787952637 | 32.22° C | 46% | 1019.6 hPa | 0 mm | - | 326 W/m² | - |
| 1787952336 | 32.78° C | 50% | 1019.6 hPa | 0 mm | - | 329 W/m² | - |
| 1787952033 | 32.22° C | 49% | 1019.5 hPa | 0 mm | - | 350 W/m² | - |
| 1787951732 | 32.22° C | 48% | 1020 hPa | 0 mm | - | 360 W/m² | - |
| 1787951428 | 32.22° C | 47% | 1019.7 hPa | 0 mm | - | 374 W/m² | - |
| 1787951124 | 31.67° C | 46% | 1020 hPa | 0 mm | - | 395 W/m² | - |
| 1787950819 | 31.11° C | 51% | 1019.9 hPa | 0 mm | - | 95 W/m² | - |
| 1787950514 | 30.56° C | 52% | 1019.8 hPa | 0 mm | - | 147 W/m² | - |
| 1787950211 | 30.56° C | 54% | 1020 hPa | 0 mm | - | 451 W/m² | - |
| 1787949907 | 31.11° C | 54% | 1019.9 hPa | 0 mm | - | 448 W/m² | - |
| 1787949601 | 30.56° C | 53% | 1020 hPa | 0 mm | - | 158 W/m² | - |
| 1787949296 | 30° C | 56% | 1020 hPa | 0 mm | - | 135 W/m² | - |
| 1787948991 | 30° C | 56% | 1020.1 hPa | 0 mm | - | 122 W/m² | - |
| 1787948687 | 30.56° C | 54% | 1020.1 hPa | 0 mm | - | 468 W/m² | - |
| 1787948383 | 31.67° C | 52% | 1020.1 hPa | 0 mm | - | 363 W/m² | - |
| 1787948082 | 31.11° C | 53% | 1020.2 hPa | 0 mm | - | 143 W/m² | - |
| 1787947776 | 31.11° C | 48% | 1020.4 hPa | 0 mm | - | 151 W/m² | - |
| 1787947475 | 31.67° C | 49% | 1020.4 hPa | 0 mm | - | 432 W/m² | - |
| 1787947175 | 32.22° C | 47% | 1020.3 hPa | 0 mm | - | 244 W/m² | - |
| 1787946875 | 31.67° C | 51% | 1020.4 hPa | 0 mm | - | 623 W/m² | - |
| 1787946572 | 31.11° C | 56% | 1020.3 hPa | 0 mm | - | 135 W/m² | - |
| 1787946268 | 30.56° C | 56% | 1020.2 hPa | 0 mm | - | 120 W/m² | - |
| 1787945967 | 30.56° C | 56% | 1020.5 hPa | 0 mm | - | 113 W/m² | - |
* Rain latest hour (hover to see other rain measurements)
** Current wind speed in m/s (hover to see current wind gust speed)